This demonstration page uses our WeatherBlox Daily Observations layout. Learn more.

Left ArrowRight Arrow

30.00354, -91.81873

Hourly Observations for September 2, 2022

Temp ( °F °C ) Dew Point ( °F °C ) Humidity (%) Winds ( mph kmh ) Pressure ( in mb ) Visibility ( mi km ) Precip ( " mm )
12:53 am 00:53 Clear 77 25 74 23.3 90 90 SW 3 6 29.94 1014 10 16 0.00 0.00
1:53 am 01:53 Clear 77 25 73 22.8 88 88 Calm 29.93 1013 10 16 0.00 0.00
2:53 am 02:53 Clear 75 23.9 73 22.8 94 94 Calm 29.92 1013 9 14 0.00 0.00
3:53 am 03:53 Clear 74 23.3 72 22.2 94 94 SSE 3 6 29.93 1014 8 13 0.00 0.00
4:53 am 04:53 Clear 75 23.9 72 22.2 90 90 SSE 3 6 29.93 1014 8 13 0.00 0.00
5:53 am 05:53 Clear with Mist and Fog 74 23.3 72 22.2 94 94 Calm 29.95 1014 6 10 0.00 0.00
6:53 am 06:53 Sunny with Mist and Fog 74 23.3 72 22.2 94 94 Calm 29.95 1014 6 10 0.00 0.00
7:53 am 07:53 Sunny with Mist and Fog 77 25 74 23.3 90 90 Calm 29.97 1015 5 8 0.00 0.00
8:53 am 08:53 Sunny 81 27.2 76 24.4 85 85 Calm 29.97 1015 10 16 0.00 0.00
9:53 am 09:53 Sunny 86 30 77 25 75 75 VRB 3 6 29.99 1016 10 16 0.00 0.00
10:53 am 10:53 Sunny 87 30.6 76 24.4 70 70 VRB 3 6 30.00 1016 10 16 0.00 0.00
11:50 am 11:50 Mostly Cloudy 88 31 75 24 66 66 SSW 7 11 29.99 1016 10 16 0.00 0.00
11:53 am 11:53 Mostly Cloudy 87 30.6 74 23.3 65 65 S 5 7 29.99 1016 10 16 0.00 0.00
12:01 pm 12:01 Mostly Cloudy 87 30.6 75 23.9 68 68 SSW 5 7 29.99 1016 10 16 0.00 0.00
12:42 pm 12:42 Partly Cloudy with Nearby Thunderstorms 91 32.8 75 23.9 60 60 VRB 5 7 29.99 1015 10 16 0.01 0.13
12:53 pm 12:53 Mostly Cloudy with Thunderstorms 89 31.7 74 23.3 61 61 E 5 7 29.98 1015 10 16 0.01 0.13
1:14 pm 13:14 Cloudy with Nearby Thunderstorms 86 30 75 23.9 70 70 NNE 8 13 29.99 1016 10 16 0.00 0.00
1:35 pm 13:35 Cloudy with Thunderstorms 82 27.8 72 22.2 72 72 E 12 19 29.98 1015 10 16 0.00 0.00
1:50 pm 13:50 Mostly Cloudy with Nearby Thunderstorms 82 28 70 21 66 66 ENE 7 11 29.98 1015 10 16 0.00 0.00
1:53 pm 13:53 Mostly Cloudy with Nearby Thunderstorms 83 28.3 71 21.7 67 67 ENE 10 17 29.98 1015 10 16 0.00 0.00
2:35 pm 14:35 Partly Cloudy with Thunderstorms 85 29.4 71 21.7 63 63 ESE 12 19 29.98 1015 10 16 0.01 0.13
2:50 pm 14:50 Sunny 84 29 72 22 66 66 SE 10 17 29.98 1015 10 16 0.01 0.13
2:53 pm 14:53 Mostly Sunny 84 28.9 72 22.2 67 67 SE 8 13 29.97 1015 10 16 0.01 0.13
3:16 pm 15:16 Partly Cloudy with Nearby Thunderstorms 84 28.9 72 22.2 67 67 S 6 9 29.97 1015 10 16 0.00 0.00
3:23 pm 15:23 Partly Cloudy with Thunderstorms 84 28.9 72 22.2 67 67 SSW 5 7 29.96 1014 1 2 0.00 0.00
3:32 pm 15:32 Partly Cloudy with Thunderstorms 84 28.9 73 22.8 70 70 SSW 6 9 29.96 1014 5 8 0.00 0.00
3:53 pm 15:53 Mostly Sunny 82 27.8 74 23.3 77 77 SW 6 9 29.95 1014 10 16 0.00 0.00
4:53 pm 16:53 Sunny 87 30.6 73 22.8 63 63 SSE 6 9 29.93 1014 10 16 0.01 0.13
5:53 pm 17:53 Sunny 85 29.4 73 22.8 68 68 S 7 11 29.95 1014 10 16 0.00 0.00
6:53 pm 18:53 Sunny 82 27.8 73 22.8 74 74 S 5 7 29.97 1015 10 16 0.00 0.00
7:53 pm 19:53 Clear 80 26.7 75 23.9 85 85 SSE 5 7 29.97 1015 10 16 0.00 0.00
8:53 pm 20:53 Mostly Clear 80 26.7 75 23.9 85 85 Calm 30.00 1016 10 16 0.00 0.00
9:11 pm 21:11 Mostly Cloudy 81 27.2 75 23.9 82 82 Calm 30.01 1016 10 16 0.01 0.13
9:26 pm 21:26 Partly Cloudy 80 26.7 75 23.9 85 85 Calm 30.02 1017 10 16 0.01 0.13
9:53 pm 21:53 Mostly Clear 80 26.7 75 23.9 85 85 SSE 3 6 30.02 1017 10 16 0.01 0.13
10:15 pm 22:15 Mostly Cloudy 80 26.7 75 23.9 85 85 ESE 3 6 30.02 1017 10 16 0.00 0.00
10:53 pm 22:53 Mostly Cloudy 81 27.2 75 23.9 82 82 NW 3 6 30.03 1017 10 16 0.00 0.00
11:22 pm 23:22 Mostly Cloudy with Light Rain 78 25.6 74 23.3 87 87 Calm 30.03 1017 10 16 0.01 0.13
11:36 pm 23:36 Mostly Cloudy 78 25.6 74 23.3 87 87 Calm 30.03 1017 10 16 0.01 0.13
11:53 pm 23:53 Mostly Clear 78 25.6 74 23.3 87 87 Calm 30.02 1017 10 16 0.01 0.13

Powered by AerisWeather